| time (UTC) | temp F | wind direction | speed MPH | gust MPH | rain 1hr in | rain 24hr in | rain mn in | humidity % | barometer mb |
| 20260506155249 | 71 | 138 | 7.0 | 7.0 | 0.00 | 0.17 | 0.00 | 1009.6 | |
| 20260506154244 | 71 | 163 | 7.0 | 11.0 | 0.00 | 0.17 | 0.00 | 1009.6 | |
| 20260506153244 | 72 | 335 | 2.0 | 3.0 | 0.00 | 0.17 | 0.00 | 1009.6 | |
| 20260506152245 | 73 | 134 | 3.0 | 4.0 | 0.00 | 0.17 | 0.00 | 1009.7 | |
| 20260506151247 | 73 | 250 | 5.0 | 6.0 | 0.00 | 0.17 | 0.00 | 1009.7 | |
| 20260506150250 | 73 | 253 | 2.0 | 3.0 | 0.00 | 0.17 | 0.00 | 1009.8 | |
| 20260506145246 | 72 | 235 | 8.0 | 10.0 | 0.00 | 0.17 | 0.00 | 1009.9 | |
| 20260506144249 | 72 | 142 | 2.0 | 0.0 | 0.00 | 0.17 | 0.00 | 1009.9 | |
| 20260506143243 | 71 | 236 | 9.0 | 9.0 | 0.00 | 0.17 | 0.00 | 1010.1 | |
| 20260506142245 | 71 | 252 | 7.0 | 8.0 | 0.00 | 0.17 | 0.00 | 1010.3 | |
| 20260506141244 | 72 | 283 | 3.0 | 4.0 | 0.00 | 0.17 | 0.00 | 1010.3 | |
| 20260506140245 | 70 | 284 | 9.0 | 4.0 | 0.00 | 0.17 | 0.00 | 1010.5 | |
| 20260506135248 | 70 | 228 | 4.0 | 3.0 | 0.00 | 0.17 | 0.00 | 1010.4 | |
| 20260506134244 | 70 | 242 | 3.0 | 7.0 | 0.00 | 0.17 | 0.00 | 1010.7 | |
| 20260506133245 | 69 | 222 | 1.0 | 0.0 | 0.00 | 0.17 | 0.00 | 1010.7 | |
| 20260506132245 | 69 | 307 | 5.0 | 6.0 | 0.00 | 0.17 | 0.00 | 1010.8 | |
| 20260506131244 | 71 | 302 | 5.0 | 4.0 | 0.00 | 0.17 | 0.00 | 1011.0 | |
| 20260506130244 | 69 | 267 | 7.0 | 7.0 | 0.00 | 0.17 | 0.00 | 1011.1 | |
| 20260506125244 | 70 | 221 | 5.0 | 5.0 | 0.00 | 0.17 | 0.00 | 1011.1 | |
| 20260506124246 | 69 | 249 | 9.0 | 6.0 | 0.00 | 0.17 | 0.00 | 1011.0 | |
| 20260506123244 | 71 | 217 | 3.0 | 7.0 | 0.00 | 0.17 | 0.00 | 1011.0 | |
| 20260506122245 | 71 | 215 | 9.0 | 4.0 | 0.00 | 0.17 | 0.00 | 1011.2 | |
| 20260506121244 | 69 | 160 | 3.0 | 5.0 | 0.00 | 0.17 | 0.00 | 1011.2 | |
| 20260506120246 | 68 | 309 | 5.0 | 7.0 | 0.00 | 0.17 | 0.00 | 1011.3 | |
| 20260506115247 | 68 | 266 | 5.0 | 3.0 | 0.00 | 0.17 | 0.00 | 1011.4 | |
| 20260506114250 | 68 | 309 | 9.0 | 9.0 | 0.00 | 0.17 | 0.00 | 1011.4 | |
| 20260506113253 | 69 | 197 | 2.0 | 4.0 | 0.00 | 0.17 | 0.00 | 1011.4 | |
| 20260506112250 | 68 | 242 | 10.0 | 9.0 | 0.00 | 0.17 | 0.00 | 1011.6 | |
| 20260506111253 | 68 | 338 | 4.0 | 4.0 | 0.00 | 0.17 | 0.00 | 1011.6 | |
| 20260506110249 | 67 | 207 | 6.0 | 4.0 | 0.00 | 0.17 | 0.00 | 1011.8 | |
| 20260506105243 | 67 | 194 | 4.0 | 4.0 | 0.00 | 0.17 | 0.00 | 1011.8 | |
| 20260506104245 | 67 | 283 | 3.0 | 6.0 | 0.00 | 0.17 | 0.00 | 1011.9 | |
| 20260506103248 | 66 | 259 | 6.0 | 5.0 | 0.00 | 0.17 | 0.00 | 1011.9 | |
| 20260506102245 | 66 | 229 | 6.0 | 6.0 | 0.00 | 0.17 | 0.00 | 1012.0 | |
| 20260506101243 | 64 | 257 | 7.0 | 4.0 | 0.00 | 0.17 | 0.00 | 1012.1 | |
| 20260506100246 | 65 | 32 | 3.0 | 2.0 | 0.00 | 0.17 | 0.00 | 1012.2 | |
| 20260506095240 | 64 | 108 | 0.0 | 0.0 | 0.00 | 0.17 | 0.00 | 1012.4 | |
| 20260506094243 | 63 | 177 | 1.0 | 0.0 | 0.00 | 0.17 | 0.00 | 1012.5 | |
| 20260506093246 | 62 | 51 | 0.0 | 1.0 | 0.00 | 0.17 | 0.00 | 1012.6 | |
| 20260506092244 | 63 | 333 | 1.0 | 3.0 | 0.00 | 0.17 | 0.00 | 1012.8 | |
| 20260506091247 | 61 | 84 | 3.0 | 4.0 | 0.00 | 0.17 | 0.00 | 1012.7 | |
| 20260506090243 | 59 | 0 | 6.0 | 4.0 | 0.00 | 0.17 | 0.00 | 1012.8 | |
| 20260506085241 | 59 | 342 | 5.0 | 9.0 | 0.00 | 0.17 | 0.00 | 1012.7 | |
| 20260506084242 | 59 | 27 | 3.0 | 3.0 | 0.00 | 0.17 | 0.00 | 1012.8 | |
| 20260506083243 | 58 | 311 | 4.0 | 8.0 | 0.00 | 0.17 | 0.00 | 1012.8 | |
| 20260506082241 | 57 | 13 | 4.0 | 6.0 | 0.00 | 0.17 | 0.00 | 1012.7 | |
| 20260506081242 | 57 | 340 | 8.0 | 8.0 | 0.00 | 0.17 | 0.00 | 1012.6 | |
| 20260506080245 | 57 | 332 | 6.0 | 8.0 | 0.00 | 0.17 | 0.00 | 1012.5 | |
| 20260506073241 | 54 | 293 | 6.0 | 9.0 | 0.00 | 0.17 | 0.00 | 1012.4 | |
| 20260506072241 | 54 | 319 | 7.0 | 7.0 | 0.00 | 0.17 | 0.00 | 1012.1 | |
| 20260506071241 | 52 | 336 | 7.0 | 9.0 | 0.00 | 0.17 | 0.00 | 1012.5 | |
| 20260506070243 | 51 | 357 | 8.0 | 5.0 | 0.00 | 0.17 | 0.00 | 1012.6 | |
| 20260506062243 | 50 | 1 | 6.0 | 4.0 | 0.00 | 0.17 | 0.00 | 1012.5 | |
| 20260506061240 | 50 | 25 | 6.0 | 5.0 | 0.00 | 0.17 | 0.00 | 1012.5 | |
| 20260506060243 | 49 | 318 | 7.0 | 7.0 | 0.00 | 0.17 | 0.00 | 1012.3 | |
| 20260506051246 | 48 | 300 | 5.0 | 5.0 | 0.00 | 0.17 | 0.00 | 1012.1 | |
| 20260506050248 | 49 | 309 | 5.0 | 4.0 | 0.00 | 0.17 | 0.00 | 1011.9 | |
| 20260506044254 | 49 | 280 | 4.0 | 3.0 | 0.00 | 0.17 | 0.00 | 1011.7 | |
| 20260506043254 | 49 | 359 | 5.0 | 5.0 | 0.00 | 0.17 | 0.00 | 1011.9 | |
| 20260506042248 | 49 | 308 | 5.0 | 2.0 | 0.00 | 0.17 | 0.00 | 1011.7 | |
| 20260506041245 | 49 | 314 | 2.0 | 2.0 | 0.00 | 0.17 | 0.00 | 1011.6 | |
| 20260506040242 | 49 | 305 | 0.0 | 3.0 | 0.00 | 0.17 | 0.00 | 1011.5 | |
| 20260506035242 | 49 | 281 | 4.0 | 1.0 | 0.00 | 0.17 | 0.00 | 1011.6 | |
| 20260506034244 | 50 | 325 | 5.0 | 5.0 | 0.00 | 0.17 | 0.00 | 1011.5 | |
| 20260506033247 | 50 | 314 | 5.0 | 4.0 | 0.00 | 0.17 | 0.00 | 1011.4 | |
| 20260506032249 | 50 | 329 | 4.0 | 5.0 | 0.00 | 0.17 | 0.00 | 1011.3 | |
| 20260506031242 | 50 | 338 | 7.0 | 4.0 | 0.00 | 0.17 | 0.00 | 1011.3 | |
| 20260506030241 | 50 | 188 | 0.0 | 0.0 | 0.00 | 0.17 | 0.00 | 1011.3 | |
| 20260506025242 | 50 | 309 | 3.0 | 4.0 | 0.00 | 0.17 | 0.00 | 1011.3 | |
| 20260506024242 | 51 | 332 | 4.0 | 3.0 | 0.00 | 0.17 | 0.00 | 1011.2 | |
| 20260506023242 | 51 | 273 | 0.0 | 2.0 | 0.00 | 0.17 | 0.00 | 1011.2 | |
| 20260506022245 | 51 | 245 | 3.0 | 0.0 | 0.00 | 0.17 | 0.00 | 1011.1 | |
| 20260506021247 | 50 | 350 | 0.0 | 0.0 | 0.00 | 0.17 | 0.00 | 1011.1 | |
| 20260506020245 | 50 | 350 | 0.0 | 0.0 | 0.00 | 0.17 | 0.00 | 1011.0 | |
| 20260506015243 | 51 | 350 | 0.0 | 0.0 | 0.00 | 0.17 | 0.00 | 1010.9 | |
| 20260506014246 | 51 | 350 | 0.0 | 0.0 | 0.00 | 0.17 | 0.00 | 1010.9 | |
| 20260506013243 | 51 | 350 | 0.0 | 0.0 | 0.00 | 0.17 | 0.00 | 1010.8 | |
| 20260506012244 | 52 | 350 | 0.0 | 0.0 | 0.00 | 0.17 | 0.00 | 1010.8 | |
| 20260506011247 | 52 | 350 | 0.0 | 0.0 | 0.00 | 0.17 | 0.00 | 1010.9 | |
| 20260506010247 | 52 | 350 | 0.0 | 0.0 | 0.00 | 0.17 | 0.00 | 1010.9 | |
| 20260506005244 | 52 | 350 | 0.0 | 0.0 | 0.00 | 0.17 | 0.00 | 1011.0 | |
| 20260506004246 | 53 | 321 | 4.0 | 2.0 | 0.00 | 0.17 | 0.00 | 1011.1 | |
| 20260506003242 | 52 | 335 | 2.0 | 5.0 | 0.00 | 0.17 | 0.00 | 1011.2 | |
| 20260506002245 | 53 | 3 | 3.0 | 4.0 | 0.00 | 0.17 | 0.00 | 1011.2 | |
| 20260506001241 | 53 | 332 | 6.0 | 7.0 | 0.00 | 0.17 | 0.00 | 1011.2 | |
| 20260506000243 | 53 | 248 | 3.0 | 3.0 | 0.00 | 0.17 | 0.00 | 1011.3 | |
| 20260505235245 | 53 | 8 | 1.0 | 1.0 | 0.00 | 0.17 | 0.00 | 1011.2 | |
| 20260505234242 | 53 | 321 | 3.0 | 1.0 | 0.00 | 0.17 | 0.00 | 1011.2 | |
| 20260505233245 | 53 | 321 | 4.0 | 6.0 | 0.00 | 0.17 | 0.00 | 1011.1 | |
| 20260505232241 | 54 | 3 | 0.0 | 0.0 | 0.00 | 0.17 | 0.00 | 1011.2 | |
| 20260505231242 | 53 | 336 | 3.0 | 4.0 | 0.00 | 0.17 | 0.00 | 1011.2 | |
| 20260505230241 | 53 | 1 | 4.0 | 3.0 | 0.00 | 0.17 | 0.00 | 1011.1 | |
| 20260505225242 | 53 | 325 | 2.0 | 2.0 | 0.00 | 0.17 | 0.00 | 1011.1 | |
| 20260505224245 | 53 | 44 | 3.0 | 2.0 | 0.00 | 0.17 | 0.00 | 1010.9 | |
| 20260505223242 | 54 | 359 | 4.0 | 3.0 | 0.00 | 0.17 | 0.00 | 1011.2 | |
| 20260505222244 | 54 | 198 | 0.0 | 0.0 | 0.00 | 0.17 | 0.00 | 1011.4 | |
| 20260505221241 | 54 | 198 | 0.0 | 0.0 | 0.00 | 0.17 | 0.00 | 1011.5 | |
| 20260505220242 | 54 | 240 | 1.0 | 2.0 | 0.00 | 0.17 | 0.00 | 1011.6 | |
| 20260505215242 | 55 | 295 | 0.0 | 0.0 | 0.00 | 0.10 | 0.17 | 1011.6 | |
| 20260505214241 | 54 | 32 | 0.0 | 0.0 | 0.00 | 0.10 | 0.17 | 1011.7 | |
| 20260505213244 | 54 | 24 | 0.0 | 3.0 | 0.00 | 0.10 | 0.17 | 1011.6 | |
| 20260505212241 | 55 | 198 | 0.0 | 1.0 | 0.00 | 0.10 | 0.17 | 1011.6 | |
| 20260505211242 | 55 | 142 | 0.0 | 0.0 | 0.00 | 0.10 | 0.17 | 1011.6 | |
| 20260505210242 | 55 | 284 | 0.0 | 0.0 | 0.00 | 0.10 | 0.17 | 1011.5 | |
| 20260505205245 | 55 | 319 | 0.0 | 0.0 | 0.00 | 0.10 | 0.17 | 1011.5 | |
| 20260505204248 | 56 | 107 | 0.0 | 0.0 | 0.00 | 0.10 | 0.17 | 1011.4 | |
| 20260505203250 | 55 | 107 | 0.0 | 0.0 | 0.00 | 0.10 | 0.17 | 1011.2 | |
| 20260505202253 | 55 | 107 | 1.0 | 0.0 | 0.00 | 0.10 | 0.17 | 1011.1 | |
| 20260505201241 | 55 | 122 | 3.0 | 3.0 | 0.00 | 0.10 | 0.17 | 1011.0 | |
| 20260505200242 | 55 | 124 | 3.0 | 2.0 | 0.00 | 0.10 | 0.17 | 1010.8 | |
| 20260505195241 | 56 | 111 | 3.0 | 2.0 | 0.00 | 0.10 | 0.17 | 1010.6 | |
| 20260505194243 | 57 | 217 | 0.0 | 0.0 | 0.00 | 0.10 | 0.17 | 1010.4 | |
| 20260505193242 | 57 | 217 | 0.0 | 0.0 | 0.00 | 0.10 | 0.17 | 1010.3 | |
| 20260505192244 | 57 | 4 | 0.0 | 0.0 | 0.00 | 0.10 | 0.17 | 1010.0 | |
| 20260505191247 | 57 | 309 | 2.0 | 4.0 | 0.00 | 0.10 | 0.17 | 1010.1 | |
| 20260505190242 | 57 | 343 | 3.0 | 0.0 | 0.00 | 0.10 | 0.17 | 1009.9 | |
| 20260505185243 | 57 | 347 | 6.0 | 2.0 | 0.01 | 0.10 | 0.17 | 1010.0 | |
| 20260505184241 | 57 | 302 | 0.0 | 3.0 | 0.01 | 0.10 | 0.17 | 1010.1 | |
| 20260505183241 | 57 | 58 | 3.0 | 2.0 | 0.01 | 0.10 | 0.17 | 1010.0 | |
| 20260505182242 | 57 | 44 | 1.0 | 3.0 | 0.01 | 0.10 | 0.17 | 1009.7 | |
| 20260505181242 | 57 | 129 | 1.0 | 0.0 | 0.01 | 0.10 | 0.17 | 1009.7 | |
| 20260505180244 | 57 | 45 | 0.0 | 0.0 | 0.01 | 0.10 | 0.17 | 1009.8 | |
| 20260505175240 | 57 | 45 | 0.0 | 0.0 | 0.08 | 0.10 | 0.17 | 1009.7 | |
| 20260505174241 | 57 | 56 | 3.0 | 3.0 | 0.08 | 0.10 | 0.17 | 1009.7 | |
| 20260505173243 | 58 | 35 | 0.0 | 0.0 | 0.08 | 0.10 | 0.16 | 1009.8 | |
| 20260505172240 | 57 | 35 | 0.0 | 0.0 | 0.08 | 0.10 | 0.16 | 1009.8 | |
| 20260505171240 | 57 | 3 | 3.0 | 1.0 | 0.08 | 0.10 | 0.16 | 1009.5 | |
| 20260505170243 | 57 | 21 | 0.0 | 0.0 | 0.08 | 0.10 | 0.16 | 1009.8 | |
| 20260505165244 | 58 | 70 | 4.0 | 3.0 | 0.08 | 0.10 | 0.16 | 1010.0 | |
| 20260505164241 | 58 | 304 | 0.0 | 0.0 | 0.08 | 0.10 | 0.15 | 1010.1 | |
| 20260505163241 | 57 | 287 | 3.0 | 2.0 | 0.08 | 0.10 | 0.14 | 1010.5 | |
| 20260505162239 | 59 | 25 | 0.0 | 0.0 | 0.08 | 0.10 | 0.12 | 1010.2 | |
| 20260505161240 | 59 | 312 | 5.0 | 7.0 | 0.08 | 0.10 | 0.12 | 1010.3 | |
| 20260505160242 | 59 | 25 | 0.0 | 0.0 | 0.08 | 0.10 | 0.11 | 1010.5 |